Location: Contre
(49.7477°N, 2.0963°E)
Time: 21:39:10
(UTC+00:00)

METEOR 2-5 DEB - Visible Passes

Search period start: 21 February 2024 00:00
Search period end: 02 March 2024 00:00
Orbit: 795 x 799 km, 81.2° (Epoch: 20 February)

Date Brightness Start Highest point End Pass type
(mag) Time Alt. Az. Time Alt. Az. Time Alt. Az.
21 Feb ? 05:39:26 10° ESE 05:42:46 17° E 05:46:07 10° NE visible
21 Feb ? 17:45:46 10° NNW 17:51:09 85° W 17:56:31 10° S visible
21 Feb ? 19:29:37 10° NW 19:32:04 13° W 19:34:31 10° WSW visible
22 Feb ? 05:13:21 10° E 05:15:02 11° E 05:16:42 10° ENE visible
22 Feb ? 19:00:35 10° NW 19:04:18 19° W 19:08:00 10° SW visible
23 Feb ? 18:32:00 10° NNW 18:36:28 28° W 18:40:56 10° SW visible
24 Feb ? 05:55:04 10° SSE 05:59:53 36° E 06:04:43 10° NNE visible
24 Feb ? 18:03:36 10° NNW 18:08:34 40° W 18:13:31 10° SSW visible
25 Feb ? 05:27:44 10° SE 05:32:00 25° E 05:36:17 10° NE visible
26 Feb ? 05:00:46 10° ESE 05:04:10 17° E 05:07:35 10° NE visible
26 Feb ? 18:51:06 10° NW 18:53:27 13° W 18:55:48 10° WSW visible
27 Feb ? 04:34:36 10° E 04:36:24 12° E 04:38:13 10° ENE visible
27 Feb ? 18:21:59 10° NW 18:25:39 19° W 18:29:19 10° SW visible
28 Feb ? 05:44:00 10° S 05:49:10 52° E 05:54:22 10° NNE visible
29 Feb ? 05:16:21 10° SSE 05:21:12 36° E 05:26:03 10° NNE visible
01 Mar ? 04:48:58 10° SE 04:53:16 25° E 04:57:35 10° NE visible
